Location: Clarion
(42.7316°N, 93.7330°W)
Time: 22:04:26
(UTC+00:00)

Cosmos 2180 Rocket - Pass Details

Date: 22 April 2026
Orbit: 954 x 1003 km, 82.9° (Epoch: 12 May)

Event Time Altitude Azimuth Distance (km) Brightness Sun altitude
Exits shadow 08:21:04 76° 192° (SSW) 986 4.3 -27.7°
Maximum altitude 08:21:36 89° 276° (W) 963 4.3 -27.7°
Drops below altitude 10° 08:27:48 10° 7° (N) 2,707 7.6 -27.0°
Sets 08:30:20 0° 8° (N) 3,664 8.4 -26.7°
